Location: DARK SKY Beskydy - Park tmavé oblohy, www.darkskybeskydy.cz
(49.4926°N, 18.5016°E)
Time: 08:21:30
(UTC+02:00)

Envisat - Pass Details

Date: 23 June 2024
Orbit: 762 x 764 km, 98.3° (Epoch: 12 July)

Event Time Altitude Azimuth Distance (km) Brightness Sun altitude
Rises 02:22:11 0° 34° (NNE) 3,236 8.0 -14.1°
Maximum altitude 02:27:45 10° 83° (E) 2,300 5.9 -13.8°
Drops below altitude 10° 02:27:49 10° 84° (E) 2,300 5.9 -13.8°
Sets 02:33:16 0° 133° (SE) 3,215 6.0 -13.4°
